When you browse on this site, cookies collect data to enhance your experience and personalize the content and advertising you see.
Visit our Privacy Policy to learn more. By continuing to use the site, you agree to this use of cookies and data.
  • Em Portugal
  • Lista de países
  • Para 7 dias
  • Temperatura da água
  • Mapas de satélite
  • Mapa do tempo
  • Widgets de tempo
  • user-avatar
    Iniciar Sessão

    Previsão horária em Kandahar

    Hoje, 19 Fevereiro, Terça-feira

    Tempo Temperatura Precipitação Vento Pressão Humidade
    00:00 +9°C° 0 mm 1 m/s 671 mmHg 56%
    01:00 +8°C° 0 mm 1 m/s 670 mmHg 56%
    02:00 +7°C° 0 mm 2 m/s 670 mmHg 56%
    03:00 +7°C° 0 mm 2 m/s 670 mmHg 55%
    04:00 +6°C° 0 mm 2 m/s 669 mmHg 55%
    05:00 +7°C° 0 mm 2 m/s 670 mmHg 54%
    06:00 +7°C° 0 mm 3 m/s 670 mmHg 52%
    07:00 +7°C° 0 mm 3 m/s 670 mmHg 51%
    08:00 +7°C° 0 mm 4 m/s 670 mmHg 45%
    09:00 +10°C° 0 mm 4 m/s 670 mmHg 39%
    10:00 +12°C° 0 mm 5 m/s 671 mmHg 33%
    11:00 +13°C° 0 mm 5 m/s 671 mmHg 33%
    12:00 +14°C° 0 mm 4 m/s 671 mmHg 32%
    13:00 +15°C° 0 mm 4 m/s 670 mmHg 31%
    14:00 +17°C° 0 mm 3 m/s 670 mmHg 32%
    15:00 +17°C° 0 mm 3 m/s 670 mmHg 32%
    16:00 +18°C° 0 mm 2 m/s 670 mmHg 33%
    17:00 +16°C° 0 mm 2 m/s 670 mmHg 36%
    18:00 +14°C° 0 mm 3 m/s 670 mmHg 40%
    19:00 +13°C° 0 mm 3 m/s 670 mmHg 44%
    20:00 +12°C° 0 mm 4 m/s 670 mmHg 46%
    21:00 +12°C° 0 mm 4 m/s 671 mmHg 49%
    22:00 +10°C° 0 mm 5 m/s 671 mmHg 51%
    23:00 +10°C° 0 mm 5 m/s 671 mmHg 53%

    Amanhã, 20 Fevereiro, Quarta-feira

    Tempo Temperatura Precipitação Vento Pressão Humidade
    00:00 +10°C° 0 mm 4 m/s 671 mmHg 54%
    01:00 +10°C° 0 mm 4 m/s 671 mmHg 55%
    02:00 +10°C° 0.1 mm 4 m/s 670 mmHg 57%
    03:00 +9°C° 0.1 mm 5 m/s 670 mmHg 59%
    04:00 +9°C° 0.1 mm 5 m/s 670 mmHg 61%
    05:00 +8°C° 0.4 mm 4 m/s 670 mmHg 65%
    06:00 +8°C° 0.4 mm 4 m/s 670 mmHg 69%
    07:00 +8°C° 0.4 mm 4 m/s 671 mmHg 73%
    08:00 +9°C° 0.7 mm 3 m/s 671 mmHg 74%
    09:00 +9°C° 0.7 mm 3 m/s 671 mmHg 75%
    10:00 +9°C° 0.7 mm 3 m/s 671 mmHg 75%
    11:00 +9°C° 1.5 mm 3 m/s 671 mmHg 74%
    12:00 +9°C° 1.5 mm 3 m/s 670 mmHg 73%
    13:00 +8°C° 1.5 mm 4 m/s 670 mmHg 72%
    14:00 +8°C° 0.2 mm 4 m/s 670 mmHg 66%
    15:00 +10°C° 0.2 mm 4 m/s 670 mmHg 61%
    16:00 +10°C° 0.2 mm 4 m/s 671 mmHg 55%
    17:00 +10°C° 0 mm 3 m/s 671 mmHg 56%
    18:00 +9°C° 0 mm 3 m/s 672 mmHg 58%
    19:00 +9°C° 0 mm 2 m/s 673 mmHg 59%
    20:00 +9°C° 0 mm 2 m/s 673 mmHg 60%
    21:00 +8°C° 0 mm 3 m/s 674 mmHg 61%
    22:00 +8°C° 0 mm 3 m/s 674 mmHg 62%
    23:00 +8°C° 0 mm 3 m/s 674 mmHg 64%

    Depois de amanhã, 21 Fevereiro, Quinta-feira

    Tempo Temperatura Precipitação Vento Pressão Humidade
    00:00 +7°C° 0 mm 3 m/s 674 mmHg 65%
    01:00 +7°C° 0 mm 3 m/s 674 mmHg 67%
    02:00 +5°C° 0 mm 3 m/s 674 mmHg 68%
    03:00 +4°C° 0 mm 3 m/s 674 mmHg 68%
    04:00 +4°C° 0 mm 4 m/s 675 mmHg 68%
    05:00 +3°C° 0 mm 3 m/s 675 mmHg 67%
    06:00 +3°C° 0 mm 3 m/s 676 mmHg 65%
    07:00 +2°C° 0 mm 3 m/s 677 mmHg 63%
    08:00 +3°C° 0 mm 4 m/s 677 mmHg 55%
    09:00 +4°C° 0 mm 4 m/s 678 mmHg 47%
    10:00 +5°C° 0 mm 4 m/s 678 mmHg 40%
    11:00 +6°C° 0 mm 4 m/s 678 mmHg 36%
    12:00 +7°C° 0 mm 4 m/s 678 mmHg 32%
    13:00 +9°C° 0 mm 3 m/s 678 mmHg 28%
    14:00 +9°C° 0 mm 3 m/s 678 mmHg 27%
    15:00 +9°C° 0 mm 3 m/s 677 mmHg 26%
    16:00 +9°C° 0 mm 2 m/s 677 mmHg 26%
    17:00 +9°C° 0 mm 2 m/s 677 mmHg 28%
    18:00 +8°C° 0 mm 2 m/s 678 mmHg 31%
    19:00 +8°C° 0 mm 2 m/s 678 mmHg 33%
    20:00 +7°C° 0 mm 2 m/s 678 mmHg 35%
    21:00 +8°C° 0 mm 1 m/s 678 mmHg 37%
    22:00 +7°C° 0 mm 1 m/s 678 mmHg 38%
    23:00 +6°C° 0 mm 0 m/s 678 mmHg 40%

    22 Fevereiro, Sexta-feira

    Tempo Temperatura Precipitação Vento Pressão Humidade
    00:00 +5°C° 0 mm 0 m/s 678 mmHg 41%
    01:00 +5°C° 0 mm 0 m/s 678 mmHg 43%
    02:00 +4°C° 0 mm 0 m/s 677 mmHg 42%
    03:00 +5°C° 0 mm 1 m/s 677 mmHg 41%
    04:00 +4°C° 0 mm 2 m/s 677 mmHg 40%
    05:00 +4°C° 0 mm 2 m/s 677 mmHg 40%
    06:00 +4°C° 0 mm 2 m/s 678 mmHg 40%
    07:00 +4°C° 0 mm 2 m/s 678 mmHg 41%
    08:00 +5°C° 0 mm 3 m/s 678 mmHg 38%
    09:00 +7°C° 0 mm 3 m/s 678 mmHg 34%
    10:00 +8°C° 0 mm 4 m/s 679 mmHg 31%
    11:00 +9°C° 0 mm 3 m/s 678 mmHg 28%
    12:00 +10°C° 0 mm 3 m/s 677 mmHg 26%
    13:00 +11°C° 0 mm 3 m/s 677 mmHg 23%
    14:00 +13°C° 0 mm 2 m/s 677 mmHg 22%
    15:00 +13°C° 0 mm 2 m/s 676 mmHg 20%
    16:00 +13°C° 0 mm 2 m/s 676 mmHg 19%
    17:00 +12°C° 0 mm 2 m/s 676 mmHg 23%
    18:00 +12°C° 0 mm 2 m/s 676 mmHg 27%
    19:00 +10°C° 0 mm 3 m/s 677 mmHg 32%
    20:00 +9°C° 0 mm 3 m/s 677 mmHg 37%
    21:00 +8°C° 0 mm 3 m/s 677 mmHg 42%
    22:00 +6°C° 0 mm 4 m/s 677 mmHg 47%
    23:00 +6°C° 0 mm 4 m/s 676 mmHg 46%

    23 Fevereiro, Sábado

    Tempo Temperatura Precipitação Vento Pressão Humidade
    00:00 +5°C° 0 mm 4 m/s 676 mmHg 45%
    01:00 +5°C° 0 mm 4 m/s 676 mmHg 43%
    02:00 +4°C° 0 mm 4 m/s 676 mmHg 42%
    03:00 +4°C° 0 mm 4 m/s 675 mmHg 40%
    04:00 +4°C° 0 mm 4 m/s 675 mmHg 39%
    05:00 +4°C° 0 mm 4 m/s 675 mmHg 38%
    06:00 +4°C° 0 mm 4 m/s 676 mmHg 38%
    07:00 +4°C° 0 mm 4 m/s 676 mmHg 37%
    08:00 +5°C° 0 mm 5 m/s 676 mmHg 32%
    09:00 +7°C° 0 mm 5 m/s 676 mmHg 28%
    10:00 +9°C° 0 mm 5 m/s 676 mmHg 23%
    11:00 +10°C° 0 mm 5 m/s 676 mmHg 21%
    12:00 +13°C° 0 mm 4 m/s 676 mmHg 20%
    13:00 +14°C° 0 mm 4 m/s 675 mmHg 18%
    14:00 +14°C° 0 mm 3 m/s 675 mmHg 18%
    15:00 +14°C° 0 mm 3 m/s 675 mmHg 18%
    16:00 +15°C° 0 mm 2 m/s 674 mmHg 18%
    17:00 +14°C° 0 mm 2 m/s 675 mmHg 22%
    18:00 +13°C° 0 mm 2 m/s 675 mmHg 26%
    19:00 +12°C° 0 mm 1 m/s 675 mmHg 30%
    20:00 +10°C° 0 mm 2 m/s 675 mmHg 31%
    21:00 +10°C° 0 mm 2 m/s 675 mmHg 33%
    22:00 +9°C° 0 mm 2 m/s 675 mmHg 35%
    23:00 +9°C° 0 mm 2 m/s 675 mmHg 37%

    24 Fevereiro, Domingo

    Tempo Temperatura Precipitação Vento Pressão Humidade
    00:00 +8°C° 0 mm 2 m/s 674 mmHg 39%
    01:00 +7°C° 0 mm 2 m/s 674 mmHg 41%
    02:00 +7°C° 0 mm 2 m/s 674 mmHg 41%
    03:00 +6°C° 0 mm 2 m/s 674 mmHg 42%
    04:00 +6°C° 0 mm 2 m/s 674 mmHg 43%
    05:00 +6°C° 0 mm 2 m/s 674 mmHg 43%
    06:00 +6°C° 0 mm 2 m/s 674 mmHg 43%
    07:00 +6°C° 0 mm 2 m/s 675 mmHg 42%
    08:00 +8°C° 0 mm 1 m/s 675 mmHg 38%
    09:00 +10°C° 0 mm 1 m/s 675 mmHg 33%
    10:00 +11°C° 0 mm 1 m/s 676 mmHg 29%
    11:00 +12°C° 0 mm 2 m/s 675 mmHg 27%
    12:00 +13°C° 0 mm 2 m/s 675 mmHg 25%
    13:00 +14°C° 0 mm 3 m/s 675 mmHg 23%
    14:00 +14°C° 0 mm 4 m/s 675 mmHg 22%
    15:00 +14°C° 0 mm 4 m/s 674 mmHg 21%
    16:00 +14°C° 0 mm 5 m/s 674 mmHg 20%
    17:00 +14°C° 0 mm 4 m/s 674 mmHg 23%
    18:00 +13°C° 0 mm 4 m/s 675 mmHg 27%
    19:00 +12°C° 0 mm 3 m/s 675 mmHg 30%
    20:00 +12°C° 0 mm 2 m/s 675 mmHg 32%
    21:00 +10°C° 0 mm 2 m/s 675 mmHg 34%
    22:00 +10°C° 0 mm 2 m/s 675 mmHg 37%
    23:00 +9°C° 0 mm 2 m/s 674 mmHg 38%
    Mostrar mais